Regional Weather Roundup
Issued by NWS Bismarck, ND

Home | Current Version | Previous Version | Text Only | Print | Product List | Glossary On
Versions: 1 2 3 4 5 6 7 8 9 10 11 12 13 14 15 16 17 18 19 20 21 22 23 24 25 26 27 28 29 30 31 32 33 34 35 36 37 38 39 40 41 42 43 44 45 46 47 48 49 50
000
ASUS43 KBIS 221010
RWRBIS

NWR BROADCAST TEXT
NATIONAL WEATHER SERVICE BISMARCK ND
500 AM CDT FRI SEP 22 2017

NOTE: "FAIR" INDICATES FEW OR NO CLOUDS BELOW 12,000 FEET WITH NO
SIGNIFICANT WEATHER AND/OR OBSTRUCTIONS TO VISIBILITY.


CITY           SKY/WX    TMP DP  RH WIND       PRES   REMARKS
WILLISTON      CLOUDY    46  39  76 N15       29.94R
MINOT          CLOUDY    48  40  73 N12       29.90R
MINOT AFB      CLOUDY    48  40  73 N13       29.88F
BISMARCK       CLEAR     56  47  71 NE12      29.80R
DICKINSON      CLOUDY    51  38  60 N18G25    29.83F
GARRISON         N/A     51  40  65 NE15G26   29.87R
HETTINGER ARPT PTCLDY    50  36  58 N15G24    29.81S
JAMESTOWN      CLEAR     55  50  83 N10       29.77R
CARRINGTON     FAIR      54  50  87 N9        29.83S
HAZEN          CLOUDY    54  39  58 NE16      29.88R
LINTON         CLOUDY    57  46  67 NE16G26   29.74F
RUGBY          FAIR      48  43  81 N6        29.88R
STANLEY        FAIR      46  39  76 N9G17     29.96R
TIOGA          PTSUNNY   45  43  93 NE8       29.96R
WATFORD CITY   PTSUNNY   46  41  81 N13G20    29.92F
$$

CITY           SKY/WX    TMP DP  RH WIND       PRES   REMARKS
GRAND FORKS    CLOUDY    56  53  90 N13       29.78S
GRAND FORKS AF CLEAR     55  52  88 N12       29.80R
DEVILS LAKE    CLEAR     53  48  83 N10       29.86R
FARGO          CLOUDY    66  66 100 N10       29.71F FOG
CANDO          FAIR      50  50 100 N10G18    29.89R
CAVALIER       FAIR      54  52  94 N9        29.85R
GRAFTON        FAIR      55  52  88 N13G20    29.84R
GWINNER        FOG       64  64 100 CALM      29.70R VSB 1/4
LANGDON        FAIR      50  50 100 N10       29.86R
ROLLA          FAIR      46  43  87 N14       29.91R
WALHALLA       FAIR     N/A N/A N/A NW9       29.86R
$$

CITY           SKY/WX    TMP DP  RH WIND       PRES   REMARKS
ABERDEEN       CLEAR     64  63  96 N7        29.66S
MOBRIDGE       MOCLDY    61  51  70 NE15G24   29.66R
BUFFALO          N/A     51  36  56 NE23G29   29.73F
GLASGOW        CLOUDY    47  34  60 CALM      29.98S
SIDNEY         CLOUDY    48  38  68 N12       29.94S
WOLF POINT     LGT RAIN  46  39  76 N7        29.97S
GLENDIVE       CLOUDY    48  37  65 NE16      29.93R
MILES CITY     CLOUDY    49  36  61 N14       29.89F
BAKER          CLOUDY    51  35  54 N14       29.89S
$$

CITY           SKY/WX    TMP DP  RH WIND       PRES   REMARKS
BILLINGS       CLOUDY    40  38  93 N14       29.96R
GREAT FALLS    LGT RAIN  37  31  78 N12       30.05S
REGINA         CLOUDY    37  34  87 NW3       30.00R
ESTEVAN        LGT RAIN  45  41  87 N8        29.94R
$$




USA.gov is the U.S. government's official web portal to all federal, state and local government web resources and services.